Twin Falls, ID

9:41 PM MST on February 21, 2017 (GMT -0700)
Joslin Field-Magic Valley Regional

Weather History for KTWF - February, 2013

Change the Weather History Date:

Friday, February 8, 2013

  Actual Average Record
Temperature  
Mean Temperature 31 °F -  
Max Temperature 33 °F 40 °F 65 °F (2015)
Min Temperature 29 °F 22 °F -7 °F (1989)
Degree Days  
Heating Degree Days 34 34  
Month to date heating degree days 230 274  
Since 1 July heating degree days 3649 3942  
Cooling Degree Days 0 0  
Month to date cooling degree days 0 0  
Year to date cooling degree days 0 0  
Moisture  
Dew Point 27 °F    
Average Humidity 79    
Maximum Humidity 85    
Minimum Humidity 72    
Precipitation  
Precipitation 0.37 in 0.03 in 0.40 in (2017)
Month to date precipitation 0.37 0.24  
Year to date precipitation 0.51 1.22  
Sea Level Pressure  
Sea Level Pressure 29.79 in    
Wind  
Wind Speed 8 mph (WNW)    
Max Wind Speed 22 mph    
Max Gust Speed 25 mph    
Visibility 2 miles    
Events Fog , Snow    
T = Trace of Precipitation, MM = Missing Value Source: NWS Daily Summary

Daily Weather History Graph

Daily Weather History Graph

Search for Another Location

Airport or City:

Trip Planner

Search our weather history database for the weather conditions in past years. The results will help you decide how hot, cold, wet, or windy it might be!

Date:

Astronomy

Feb. 08, 2013 Rise Set
Actual Time 7:43 AM MST 6:01 PM MST
Civil Twilight 7:14 AM MST 6:30 PM MST
Nautical Twilight 6:40 AM MST 7:04 PM MST
Astronomical Twilight 6:08 AM MST 7:36 PM MST
Moon 6:16 AM MST (2/8) 4:39 PM MST (2/8)
Length of Visible Light 11h 16m
Length of Day
10h 18m
Waning Crescent, 3% of the Moon is Illuminated
Feb 8
Waning Crescent
Feb 10
New
Feb 17
First Quarter
Feb 25
Full
Mar 4
Last Quarter

Hourly Weather History & Observations

Time (MST) Temp. Windchill Dew Point Humidity Pressure Visibility Wind Dir Wind Speed Gust Speed Precip Events Conditions
12:53 AM 33.1 °F 30.0 °F 27.0 °F 78% 29.86 in 10.0 mi NE 3.5 mph - N/A   Overcast
1:53 AM 33.1 °F - 27.0 °F 78% 29.84 in 9.0 mi Calm Calm - N/A   Overcast
2:53 AM 32.0 °F 27.5 °F 25.0 °F 75% 29.83 in 10.0 mi East 4.6 mph - N/A   Overcast
3:53 AM 32.0 °F - 26.1 °F 79% 29.81 in 10.0 mi Calm Calm - N/A   Overcast
4:53 AM 33.1 °F - 26.1 °F 75% 29.83 in 10.0 mi Calm Calm - N/A   Overcast
5:22 AM 32.0 °F 27.5 °F 26.6 °F 80% 29.84 in 2.5 mi East 4.6 mph - 0.00 in Snow Light Snow
5:35 AM 30.2 °F 26.7 °F 26.6 °F 86% 29.84 in 1.5 mi East 3.5 mph - 0.00 in Snow Light Snow
5:48 AM 30.2 °F 26.7 °F 26.6 °F 86% 29.84 in 0.8 mi ENE 3.5 mph - 0.01 in Snow Light Snow
5:53 AM 30.9 °F 26.2 °F 27.0 °F 85% 29.84 in 0.8 mi East 4.6 mph - 0.01 in Snow Light Snow
6:08 AM 30.2 °F - 26.6 °F 86% 29.83 in 1.0 mi Calm Calm - 0.01 in Snow Light Snow
6:17 AM 30.2 °F - 26.6 °F 86% 29.83 in 1.2 mi Calm Calm - 0.01 in Snow Light Snow
6:24 AM 30.2 °F - 26.6 °F 86% 29.82 in 1.5 mi Calm Calm - 0.01 in Snow Light Snow
6:34 AM 30.2 °F - 26.6 °F 86% 29.82 in 2.0 mi Calm Calm - 0.01 in Snow Light Snow
6:53 AM 30.0 °F 26.5 °F 26.1 °F 85% 29.83 in 2.5 mi West 3.5 mph - 0.01 in Snow Light Snow
7:01 AM 30.2 °F 25.4 °F 26.6 °F 86% 29.82 in 4.0 mi West 4.6 mph - 0.00 in Snow Light Snow
7:09 AM 30.2 °F 24.3 °F 26.6 °F 86% 29.82 in 6.0 mi West 5.8 mph - 0.00 in   Overcast
7:24 AM 30.2 °F - 26.6 °F 86% 29.82 in 7.0 mi Calm Calm - 0.00 in   Mostly Cloudy
7:52 AM 30.9 °F - 27.0 °F 85% 29.83 in 1.8 mi Calm Calm - 0.00 in Snow Light Snow
8:09 AM 30.2 °F 23.4 °F 26.6 °F 86% 29.82 in 0.8 mi WNW 6.9 mph - 0.01 in Snow Light Snow
8:29 AM 30.2 °F 24.3 °F 26.6 °F 86% 29.82 in 0.5 mi WNW 5.8 mph - 0.01 in Fog , Snow Light Snow
8:49 AM 30.2 °F 25.4 °F 26.6 °F 86% 29.83 in 0.5 mi WNW 4.6 mph - 0.02 in Fog , Snow Snow
8:53 AM 30.0 °F 25.2 °F 27.0 °F 88% 29.84 in 0.2 mi WNW 4.6 mph - 0.02 in Fog , Snow Snow
9:00 AM 30.2 °F 23.4 °F 26.6 °F 86% 29.82 in 0.5 mi WNW 6.9 mph - 0.01 in Fog , Snow Snow
9:33 AM 30.2 °F 24.3 °F 26.6 °F 86% 29.83 in 0.2 mi WNW 5.8 mph - 0.03 in Fog , Snow Snow
9:53 AM 30.9 °F 24.3 °F 27.0 °F 85% 29.83 in 0.2 mi West 6.9 mph - 0.05 in Fog , Snow Snow
10:28 AM 30.2 °F 22.6 °F 26.6 °F 86% 29.81 in 0.5 mi West 8.1 mph - 0.03 in Fog , Snow Snow
10:35 AM 30.2 °F 24.3 °F 26.6 °F 86% 29.81 in 0.8 mi WNW 5.8 mph - 0.04 in Snow Light Snow
10:37 AM 32.0 °F 24.8 °F 26.6 °F 80% 29.81 in 1.0 mi WNW 8.1 mph - 0.04 in Snow Light Snow
10:48 AM 30.2 °F 21.9 °F 26.6 °F 86% 29.81 in 1.5 mi WNW 9.2 mph - 0.04 in Snow Light Snow
10:53 AM 32.0 °F 26.4 °F 28.0 °F 85% 29.83 in 1.2 mi WNW 5.8 mph - 0.04 in Snow Light Snow
11:02 AM 32.0 °F 25.6 °F 28.4 °F 87% 29.81 in 1.0 mi West 6.9 mph - 0.00 in Snow Light Snow
11:11 AM 32.0 °F 25.6 °F 28.4 °F 87% 29.81 in 0.8 mi WNW 6.9 mph - 0.00 in Snow Light Snow
11:33 AM 32.0 °F 24.8 °F 28.4 °F 87% 29.82 in 0.8 mi WNW 8.1 mph - 0.00 in Snow Light Snow
11:41 AM 32.0 °F 25.6 °F 28.4 °F 87% 29.81 in 1.2 mi WNW 6.9 mph - 0.00 in Snow Light Snow
11:53 AM 32.0 °F 23.6 °F 27.0 °F 82% 29.82 in 1.2 mi West 10.4 mph - 0.00 in Snow Light Snow
12:03 PM 32.0 °F 24.2 °F 26.6 °F 80% 29.81 in 0.8 mi West 9.2 mph - 0.01 in Snow Light Snow
12:21 PM 32.0 °F 24.2 °F 26.6 °F 80% 29.80 in 1.0 mi West 9.2 mph - 0.01 in Snow Light Snow
12:29 PM 32.0 °F 24.2 °F 26.6 °F 80% 29.79 in 0.8 mi West 9.2 mph - 0.01 in Snow Light Snow
12:37 PM 30.2 °F 21.9 °F 26.6 °F 86% 29.79 in 1.0 mi West 9.2 mph - 0.01 in Snow Light Snow
12:53 PM 30.9 °F 22.2 °F 27.0 °F 85% 29.80 in 1.2 mi West 10.4 mph - 0.01 in Snow Light Snow
1:05 PM 30.2 °F 20.8 °F 26.6 °F 86% 29.78 in 2.0 mi West 11.5 mph - 0.00 in Snow Light Snow
1:21 PM 30.2 °F 20.2 °F 26.6 °F 86% 29.77 in 2.5 mi West 12.7 mph - 0.00 in Snow Light Snow
1:29 PM 32.0 °F 23.0 °F 26.6 °F 80% 29.77 in 4.0 mi West 11.5 mph - 0.00 in Snow Light Snow
1:46 PM 30.2 °F 20.8 °F 26.6 °F 86% 29.76 in 1.8 mi West 11.5 mph - 0.00 in Snow Light Snow
1:53 PM 30.9 °F 22.2 °F 27.0 °F 85% 29.77 in 1.8 mi West 10.4 mph - 0.00 in Snow Light Snow
2:00 PM 30.2 °F 20.8 °F 26.6 °F 86% 29.76 in 2.5 mi West 11.5 mph - 0.00 in Snow Light Snow
2:17 PM 30.2 °F 19.3 °F 26.6 °F 86% 29.76 in 1.0 mi West 15.0 mph - 0.00 in Snow Light Snow
2:24 PM 30.2 °F 19.3 °F 26.6 °F 86% 29.75 in 0.5 mi West 15.0 mph - 0.01 in Snow Snow
2:53 PM 30.9 °F 21.2 °F 26.1 °F 82% 29.76 in 0.8 mi West 12.7 mph - 0.01 in Snow Light Snow
3:26 PM 30.2 °F 20.8 °F 26.6 °F 86% 29.74 in 0.8 mi West 11.5 mph - 0.01 in Snow Light Snow
3:53 PM 32.0 °F 23.6 °F 27.0 °F 82% 29.76 in 0.8 mi West 10.4 mph - 0.01 in Snow Light Snow
4:53 PM 32.0 °F 23.6 °F 28.0 °F 85% 29.75 in 0.5 mi WNW 10.4 mph - 0.04 in Fog , Snow Snow
5:02 PM 32.0 °F 23.6 °F 28.4 °F 87% 29.75 in 0.2 mi WNW 10.4 mph - 0.01 in Fog , Snow Snow
5:28 PM 32.0 °F 23.6 °F 28.4 °F 87% 29.75 in 0.5 mi West 10.4 mph - 0.03 in Fog , Snow Snow
5:53 PM 32.0 °F 23.6 °F 28.0 °F 85% 29.76 in 0.5 mi WNW 10.4 mph - 0.06 in Fog , Snow Snow
6:00 PM 32.0 °F 23.6 °F 28.4 °F 87% 29.75 in 0.2 mi WNW 10.4 mph - 0.01 in Fog , Snow Snow
6:18 PM 32.0 °F 22.1 °F 28.4 °F 87% 29.75 in 0.5 mi West 13.8 mph - 0.02 in Fog , Snow Snow
6:53 PM 32.0 °F 22.1 °F 28.9 °F 88% 29.76 in 0.8 mi West 13.8 mph - 0.05 in Snow Light Snow
7:45 PM 32.0 °F 22.1 °F 28.4 °F 87% 29.75 in 1.0 mi WNW 13.8 mph - 0.04 in Snow Light Snow
7:53 PM 32.0 °F 21.2 °F 28.9 °F 88% 29.75 in 0.5 mi West 16.1 mph - 0.04 in Fog , Snow Snow
8:04 PM 32.0 °F 20.5 °F 28.4 °F 87% 29.75 in 1.8 mi West 18.4 mph 24.2 mph 0.01 in Snow Light Snow
8:13 PM 32.0 °F 21.2 °F 28.4 °F 87% 29.75 in 2.0 mi West 16.1 mph - 0.01 in Snow Light Snow
8:34 PM 32.0 °F 23.6 °F 28.4 °F 87% 29.76 in 1.8 mi WNW 10.4 mph - 0.01 in Snow Light Snow
8:53 PM 32.0 °F 22.1 °F 28.0 °F 85% 29.78 in 1.5 mi West 13.8 mph - 0.01 in Snow Light Snow
9:40 PM 30.2 °F 20.8 °F 28.4 °F 93% 29.76 in 3.0 mi WNW 11.5 mph - 0.01 in Snow Light Snow
9:53 PM 30.9 °F 22.2 °F 27.0 °F 85% 29.78 in 4.0 mi West 10.4 mph - 0.01 in Snow Light Snow
10:01 PM 30.2 °F 19.8 °F 26.6 °F 86% 29.77 in 4.0 mi West 13.8 mph - 0.00 in Snow Light Snow
10:12 PM 30.2 °F 20.2 °F 26.6 °F 86% 29.77 in 2.5 mi West 12.7 mph - 0.00 in Snow Light Snow
10:22 PM 30.2 °F 20.8 °F 26.6 °F 86% 29.77 in 1.8 mi West 11.5 mph - 0.00 in Snow Light Snow
10:53 PM 30.0 °F 21.1 °F 26.1 °F 85% 29.78 in 1.2 mi West 10.4 mph - 0.00 in Snow Light Snow
11:05 PM 30.2 °F 20.8 °F 26.6 °F 86% 29.77 in 3.0 mi West 11.5 mph - 0.00 in Snow Light Snow
11:13 PM 30.2 °F 20.8 °F 26.6 °F 86% 29.76 in 4.0 mi West 11.5 mph - 0.00 in Snow Light Snow
11:43 PM 28.4 °F 17.0 °F 24.8 °F 86% 29.76 in 1.8 mi West 15.0 mph - 0.00 in Snow Light Snow
11:53 PM 28.9 °F 18.6 °F 25.0 °F 85% 29.78 in 1.5 mi West 12.7 mph - 0.00 in Snow Light Snow